Skip Page Navigation
NASA JPL Caltech
NASA Logo - Jet Propulsion Laboratory + View the NASA Portal
+ Center for Near-Earth Object Studies
JPL Home Earth Solar System Stars & Galaxies Technology
JPL Solar System Dynamics
BODIES ORBITS EPHEMERIDES TOOLS PHYSICAL DATA DISCOVERY FAQ SITE MAP
JPL Small-Body Database Browser
Search: [ help ]  
29565 Glenngould (1998 FD)
Classification: Main-belt Asteroid          SPK-ID: 2029565
Ephemeris | Orbit Diagram | Orbital Elements | Mission Design | Physical Parameters | Discovery Circumstances | Close-Approach Data ]

[ hide orbit diagram ]

For accurate long-term ephemerides, please instead use our Horizons system.This orbit viewer was implemented using two-body methods, and hence should not be used for determining accurate long-term trajectories (over several years or decades) or planetary encounter circumstances.


[ revert to old Java-based viewer ]

Orbital Elements at Epoch 2459000.5 (2020-May-31.0) TDB
Reference: JPL 25 (heliocentric ecliptic J2000)
 Element Value Uncertainty (1-sigma)   Units 
e .2268349188638599 3.0729e-08  
a 3.021894675836279 1.3812e-08 au
q 2.336423442227827 9.1773e-08 au
i 2.271493009339513 4.6103e-06 deg
node 330.5454585142273 0.00010809 deg
peri 135.2935096688203 0.00010876 deg
M 121.9398429408982 1.174e-05 deg
tp 2458350.579040825098
(2018-Aug-20.07904082)
6.0868e-05 TDB
period 1918.745667208757
5.25
1.3155e-05
3.602e-08
d
yr
n .1876225735137165 1.2863e-09 deg/d
Q 3.707365909444731 1.6945e-08 au
  Orbit Determination Parameters
   # obs. used (total)      1380  
   data-arc span      14045 days (38.45 yr)  
   first obs. used      1982-01-30  
   last obs. used      2020-07-14  
   planetary ephem.      DE431  
   SB-pert. ephem.      SB431-N16  
   condition code      0  
   norm. resid. RMS      .53808  
   source      ORB  
   producer      Otto Matic  
   solution date      2020-Nov-13 01:11:14  

Additional Information
 Earth MOID = 1.35392 au 
 Jupiter MOID = 1.44655 au 
 T_jup = 3.205 
[ show covariance matrix ]

Ephemeris | Orbit Diagram | Orbital Elements | Mission Design | Physical Parameters | Discovery Circumstances | Close-Approach Data ]

Physical Parameter Table
Parameter Symbol Value Units Sigma Reference Notes
absolute magnitude H 14.1   n/a MPO474148  

29565 Glenngould           Discovered 1998 Mar. 17 by M. Boeuf at Les Tardieux.
Glenn Gould (1932-1982) was the preeminent Canadian pianist and composer of his time.
NOTE: some special characters may not display properly (any characters within {} are an attempt to place the proper accent above a character)
Reference: 20020427/MPCPages.arcLast Updated: 2003-10-02

[ show close-approach data ]
Alternate Designations
 1998 FD = 1982 BW13 = 1993 FA26 
Ephemeris | Orbit Diagram | Orbital Elements | Mission Design | Physical Parameters | Discovery Circumstances | Close-Approach Data ]
ABOUT SSD CREDITS/AWARDS PRIVACY/COPYRIGHT GLOSSARY LINKS
FirstGov 2020-Dec-01 10:24 UT
(server date/time)  
NASA Home Page
Site Manager:   Ryan S. Park
Webmaster  Alan B. Chamberlin